Regional Weather Roundup
Issued by NWS Charleston, SC

Home | Current Version | Previous Version | Text Only | Print | Product List | Glossary On
Versions: 1 2 3 4 5 6 7 8 9 10 11 12 13 14 15 16 17 18 19 20 21 22 23 24 25 26 27 28 29 30 31 32 33 34 35 36 37 38 39 40 41 42 43 44 45 46 47 48 49 50
000
ASUS42 KCHS 260827
RWRCHS

REGIONAL WEATHER ROUNDUP
NATIONAL WEATHER SERVICE CHARLESTON SC
400 AM EDT WED APR 26 2017

NOTE: "FAIR" INDICATES FEW OR NO CLOUDS BELOW 12,000 FEET WITH NO
SIGNIFICANT WEATHER AND/OR OBSTRUCTIONS TO VISIBILITY.

NOT ALL STATIONS ARE QUALITY CONTROLLED. USE DATA WITH CAUTION...
ESPECIALLY DEWPOINT OBSERVATIONS.

SCZ027-030-031-034>040-042>050-260900-
...SOUTHEAST SOUTH CAROLINA...

CITY           SKY/WX    TMP DP  RH WIND       PRES   REMARKS
N CHARLESTON   PTCLDY    63  59  87 SE5       29.77F
WATERFRONT PRK   N/A     68  64  87 E6        29.77F
JOHNS ISLAND   FAIR      63  63 100 CALM      29.78S
PINOPOLIS        N/A     66  61  82 S5        29.67F
MONCKS CORNER  CLOUDY    61  59  94 SW3       29.77S
SUMMERVILLE    CLOUDY    63  59  88 CALM      29.78S
BEAUFORT MCAS  PTCLDY    62  62 100 CALM      29.77S FOG
BEAUFORT ARPT  FAIR      64  64 100 CALM      29.77R FOG
HILTON HEAD IS CLEAR     64  64 100 S3        29.78R
WALTERBORO     SUNNY     59  59 100 CALM      29.78S
ALLENDALE      FAIR      61  59  94 CALM      29.76S

...SOUTHERN MIDLANDS AND PEE DEE...

CITY           SKY/WX    TMP DP  RH WIND       PRES   REMARKS
GEORGETOWN     FAIR      55  55 100 CALM      29.79R
KINGSTREE      FAIR      59  57  94 CALM      29.77S
ORANGEBURG     CLOUDY    63  60  90 S3        29.77S
BARNWELL       FAIR      59  59 100 CALM      29.77S
AIKEN          FAIR      55  54  94 CALM      29.80S
MANNING        CLOUDY    57  55  94 S5        29.76F
COLUMBIA       PTCLDY    63  59  87 CALM      29.76S
SUMTER         CLOUDY    62  59  90 SW3       29.74F
FLORENCE       MOCLDY    59  58  96 CALM      29.77S
MYRTLE BEACH   CLOUDY    61  59  93 CALM      29.78S
N MYRTLE BEACH PTCLDY    61  59  93 W3        29.76F

$$

GAZ063-065-086>088-099>101-113>116-118-119-134>141-150-260900-
...SOUTHEAST GEORGIA...

CITY           SKY/WX    TMP DP  RH WIND       PRES   REMARKS
SAVANNAH ARPT  PTCLDY    64  57  78 SW6       29.78S
HUNTER AAF     CLEAR     65  62  87 SW6       29.76R
FORT STEWART   CLEAR     63  57  81 SW5       29.76S
STATESBORO     PTCLDY    59  59 100 CALM      29.78S
SYLVANIA       SUNNY    N/A N/A N/A SW3       29.78R
CLAXTON        FAIR     N/A N/A N/A CALM      29.79R

...CSRA...CENTRAL AND FAR SOUTHEAST GEORGIA...

CITY           SKY/WX    TMP DP  RH WIND       PRES   REMARKS
THOMSON        CLEAR     56  55  97 CALM      29.80F
AUGUSTA-BUSH   FOG       57  56  96 CALM      29.75S VSB 1
AUGUSTA-DANIEL CLEAR     64  58  80 CALM      29.76F
SWAINSBORO     FAIR      59  57  94 CALM      29.78S
VIDALIA        PTCLDY    61  59  94 SW5       29.79R
EASTMAN        FAIR      63  52  68 CALM      29.81S
HAZLEHURST     FAIR      64  62  94 SW5       29.79R
ALMA           CLEAR     59  57  93 CALM      29.79F
WAYCROSS       CLEAR     62  62 100 SW3       29.79F
JESUP          FAIR      57  54  88 SW3       29.80S
BAXLEY         FAIR      61  61 100 CALM      29.79S
BRUNSWICK      CLEAR     63  61  94 SW9       29.81R
SAINT SIMONS   PTCLDY    65  58  78 W9        29.79F HAZE

$$

SCZ027-028-034-036>038-045-046-048>050-GAZ119-141-260900-
...LAKE AND SUPPLEMENTAL COASTAL OBSERVATIONS...

STATION/POSITION TIME  TEMP    WIND        PRES    WAVE   SWELL
                       AIR SEA DIR/SP/G            HT/PER HT/PER/DIR
                 (UTC) (F)     (DEG/KT/KT) (MB)    (FT/S) (FT/S/D)
WINYAH BAY       0730   61     260/  1     1008.0S
LAKE MURRAY      0820   64     140/  4/  6 1007.1
ACE BASIN NERRS  0730   65        CALM     1008.0S
FORT PULASKI     0800   68 74  240/  4/  6 1008.4
SAPELO ISLAND    0745   67     250/ 10     1009.0S

$$

ANZ835-935-AMZ111-154-330-350-352-354-370-450-454-472-260900-
...C-MAN AND BUOY OBSERVATIONS...

STATION/POSITION TIME  TEMP    WIND        PRES    WAVE   SWELL
                       AIR SEA DIR/SP/G            HT/PER HT/PER/DIR
                 (UTC) (F)     (DEG/KT/KT) (MB)    (FT/S) (FT/S/D)
BUOY 41004       0810   70 73  360/  4/  4 1008.1
BUOY 41008       0750   70 71  230/ 16/ 17 1008.4F   4/ 9   2/ 60/ 9
FOLLY BEACH CMAN 0800   70      90/  7/  7 1008.7F
CAPERS NEARSHORE 0808   73 71  130/  4/  8 1008.1F
FRIPP NEARSHORE  0808   71 71  210/  4/  6 1007.7F


STATION/POSITION TIME  TEMP    WIND        PRES    WAVE   SWELL
                       AIR SEA DIR/SP/G            HT/PER HT/PER/DIR
                 (UTC) (F)     (DEG/KT/KT) (MB)    (FT/S) (FT/S/D)
5E ST. MARYS GA  0800      72                N/A     3/ 9   2/100/11
FRYING PAN BUOY  0810   69 74  280/ 12/ 16 1007.5
BUOY 41025       0750   69 77  270/ 16/ 21 1005.3R   8/ 9   7/150/ 9
CAPE LOOKOUT NC  0800   63     260/  8/  9 1006.1S
BUOY 41002       0750   71 75  260/ 16/ 19 1008.7R   9/ 8   8/230/ 8
BUOY 41010       0810   74 78  190/ 16/ 19 1010.3
ST AUGUSTINE FL  0800   62 73  230/  3/  5 1011.0F


$$



USA.gov is the U.S. government's official web portal to all federal, state and local government web resources and services.